| time (UTC) | temp F | wind direction | speed MPH | gust MPH | rain 1hr in | rain 24hr in | rain mn in | humidity % | barometer mb |
| 20260503182521 | 57 | 204 | 2.0 | 5.0 | 0.00 | 0.00 | 0.00 | 53 | 1018.1 |
| 20260503181518 | 58 | 201 | 3.0 | 5.0 | 0.00 | 0.00 | 0.00 | 53 | 1018.2 |
| 20260503180555 | 58 | 197 | 3.0 | 4.0 | 0.00 | 0.00 | 0.00 | 52 | 1018.2 |
| 20260503175530 | 58 | 200 | 2.0 | 4.0 | 0.00 | 0.00 | 0.00 | 52 | 1018.1 |
| 20260503174527 | 59 | 184 | 3.0 | 5.0 | 0.00 | 0.00 | 0.00 | 51 | 1018.0 |
| 20260503173543 | 60 | 185 | 3.0 | 6.0 | 0.00 | 0.00 | 0.00 | 49 | 1018.1 |
| 20260503172519 | 61 | 187 | 2.0 | 4.0 | 0.00 | 0.00 | 0.00 | 49 | 1018.2 |
| 20260503171536 | 62 | 186 | 4.0 | 6.0 | 0.00 | 0.00 | 0.00 | 47 | 1018.2 |
| 20260503170531 | 62 | 183 | 4.0 | 7.0 | 0.00 | 0.00 | 0.00 | 46 | 1018.3 |
| 20260503150545 | 67 | 99 | 2.0 | 4.0 | 0.00 | 0.00 | 0.00 | 41 | 1019.2 |
| 20260503130517 | 65 | 72 | 3.0 | 7.0 | 0.00 | 0.00 | 0.00 | 38 | 1020.5 |
| 20260503110531 | 63 | 140 | 2.0 | 6.0 | 0.00 | 0.00 | 0.00 | 38 | 1021.9 |
| 20260503081547 | 59 | 197 | 3.0 | 7.0 | 0.00 | 0.00 | 0.00 | 42 | 1023.7 |
| 20260503080523 | 58 | 103 | 3.0 | 5.0 | 0.00 | 0.00 | 0.00 | 42 | 1023.8 |
| 20260503072528 | 56 | 186 | 3.0 | 5.0 | 0.00 | 0.00 | 0.00 | 48 | 1024.0 |
| 20260503071529 | 55 | 145 | 2.0 | 6.0 | 0.00 | 0.00 | 0.00 | 52 | 1024.1 |
| 20260503070519 | 54 | 168 | 2.0 | 4.0 | 0.00 | 0.00 | 0.00 | 52 | 1024.1 |
| 20260503054530 | 48 | 85 | 1.0 | 3.0 | 0.00 | 0.00 | 0.00 | 66 | 1024.0 |
| 20260503053526 | 46 | 76 | 2.0 | 2.0 | 0.00 | 0.00 | 0.00 | 71 | 1024.0 |
| 20260503052522 | 43 | 93 | 2.0 | 3.0 | 0.00 | 0.00 | 0.00 | 75 | 1024.0 |
| 20260503051517 | 44 | 72 | 3.0 | 4.0 | 0.00 | 0.00 | 0.00 | 75 | 1024.0 |
| 20260503050534 | 43 | 71 | 3.0 | 4.0 | 0.00 | 0.00 | 0.00 | 76 | 1024.0 |
| 20260503045530 | 41 | 67 | 3.0 | 5.0 | 0.00 | 0.00 | 0.00 | 79 | 1023.9 |
| 20260503044527 | 41 | 55 | 3.0 | 4.0 | 0.00 | 0.00 | 0.00 | 79 | 1023.8 |
| 20260503043523 | 40 | 46 | 3.0 | 4.0 | 0.00 | 0.01 | 0.00 | 78 | 1023.7 |
| 20260503042520 | 43 | 81 | 2.0 | 3.0 | 0.00 | 0.01 | 0.00 | 75 | 1023.7 |
| 20260503041534 | 41 | 123 | 2.0 | 3.0 | 0.00 | 0.01 | 0.00 | 76 | 1023.6 |
| 20260503040550 | 40 | 116 | 2.0 | 3.0 | 0.00 | 0.01 | 0.00 | 80 | 1023.6 |
| 20260503035547 | 38 | 97 | 2.0 | 3.0 | 0.00 | 0.01 | 0.00 | 84 | 1023.7 |
| 20260503034523 | 36 | 88 | 2.0 | 3.0 | 0.00 | 0.01 | 0.00 | 87 | 1023.4 |
| 20260503033600 | 35 | 100 | 2.0 | 2.0 | 0.00 | 0.01 | 0.00 | 89 | 1023.4 |
| 20260503032535 | 34 | 107 | 2.0 | 3.0 | 0.00 | 0.01 | 0.00 | 89 | 1023.5 |
| 20260503031531 | 34 | 138 | 2.0 | 3.0 | 0.00 | 0.01 | 0.00 | 88 | 1023.5 |
| 20260503030527 | 34 | 131 | 2.0 | 3.0 | 0.00 | 0.01 | 0.00 | 90 | 1023.4 |
| 20260503025524 | 34 | 132 | 2.0 | 3.0 | 0.00 | 0.01 | 0.00 | 90 | 1023.5 |
| 20260503024520 | 34 | 123 | 1.0 | 2.0 | 0.00 | 0.01 | 0.00 | 89 | 1023.4 |
| 20260503023516 | 34 | 0.0 | 1.0 | 0.00 | 0.01 | 0.00 | 89 | 1023.4 | |
| 20260503022531 | 34 | 138 | 0.0 | 2.0 | 0.00 | 0.01 | 0.00 | 88 | 1023.5 |
| 20260503021547 | 35 | 73 | 0.0 | 2.0 | 0.00 | 0.01 | 0.00 | 87 | 1023.5 |
| 20260503020524 | 35 | 133 | 2.0 | 3.0 | 0.00 | 0.01 | 0.00 | 87 | 1023.3 |
| 20260503015520 | 35 | 87 | 1.0 | 2.0 | 0.00 | 0.01 | 0.00 | 86 | 1023.3 |
| 20260503014517 | 35 | 126 | 2.0 | 2.0 | 0.00 | 0.01 | 0.00 | 86 | 1023.2 |
| 20260503013532 | 36 | 123 | 2.0 | 3.0 | 0.00 | 0.01 | 0.00 | 85 | 1023.3 |
| 20260503012529 | 36 | 122 | 1.0 | 2.0 | 0.00 | 0.01 | 0.00 | 85 | 1023.2 |
| 20260503011525 | 36 | 107 | 1.0 | 2.0 | 0.00 | 0.01 | 0.00 | 86 | 1023.3 |
| 20260503010522 | 36 | 93 | 1.0 | 2.0 | 0.00 | 0.01 | 0.00 | 85 | 1023.3 |
| 20260503005517 | 36 | 135 | 1.0 | 3.0 | 0.00 | 0.01 | 0.00 | 85 | 1023.2 |
| 20260503004553 | 37 | 119 | 2.0 | 2.0 | 0.00 | 0.01 | 0.00 | 84 | 1023.3 |
| 20260503003528 | 36 | 104 | 2.0 | 2.0 | 0.00 | 0.01 | 0.00 | 86 | 1023.3 |
| 20260503002544 | 36 | 131 | 2.0 | 3.0 | 0.00 | 0.01 | 0.00 | 86 | 1023.3 |
| 20260503001541 | 36 | 109 | 0.0 | 2.0 | 0.00 | 0.01 | 0.00 | 86 | 1023.4 |
| 20260503000522 | 36 | 125 | 1.0 | 2.0 | 0.00 | 0.01 | 0.00 | 85 | 1023.5 |
| 20260502235534 | 37 | 86 | 1.0 | 2.0 | 0.00 | 0.01 | 0.00 | 83 | 1023.5 |
| 20260502234529 | 38 | 106 | 0.0 | 2.0 | 0.00 | 0.01 | 0.00 | 81 | 1023.4 |
| 20260502233525 | 38 | 134 | 0.0 | 2.0 | 0.00 | 0.01 | 0.00 | 82 | 1023.6 |
| 20260502232521 | 38 | 141 | 0.0 | 1.0 | 0.00 | 0.01 | 0.00 | 83 | 1023.7 |
| 20260502231518 | 39 | 100 | 0.0 | 1.0 | 0.00 | 0.01 | 0.00 | 82 | 1023.8 |
| 20260502230534 | 39 | 103 | 0.0 | 2.0 | 0.00 | 0.01 | 0.00 | 82 | 1023.8 |
| 20260502225551 | 38 | 143 | 2.0 | 2.0 | 0.00 | 0.01 | 0.00 | 82 | 1024.0 |
| 20260502224526 | 38 | 130 | 0.0 | 2.0 | 0.00 | 0.01 | 0.00 | 83 | 1024.0 |
| 20260502223602 | 38 | 167 | 0.0 | 1.0 | 0.00 | 0.01 | 0.00 | 82 | 1024.0 |
| 20260502222519 | 39 | 103 | 1.0 | 2.0 | 0.00 | 0.01 | 0.00 | 80 | 1024.0 |
| 20260502221535 | 40 | 115 | 1.0 | 2.0 | 0.00 | 0.01 | 0.00 | 78 | 1024.0 |
| 20260502220532 | 40 | 111 | 1.0 | 2.0 | 0.00 | 0.01 | 0.00 | 78 | 1024.0 |
| 20260502215528 | 40 | 104 | 1.0 | 2.0 | 0.00 | 0.01 | 0.00 | 77 | 1024.2 |
| 20260502214524 | 41 | 123 | 1.0 | 2.0 | 0.00 | 0.01 | 0.00 | 77 | 1024.2 |
| 20260502213519 | 41 | 131 | 1.0 | 2.0 | 0.00 | 0.01 | 0.00 | 77 | 1024.2 |
| 20260502212516 | 41 | 0.0 | 1.0 | 0.00 | 0.01 | 0.00 | 75 | 1024.3 | |
| 20260502211533 | 41 | 120 | 0.0 | 1.0 | 0.00 | 0.01 | 0.00 | 76 | 1024.3 |
| 20260502210529 | 41 | 123 | 1.0 | 2.0 | 0.00 | 0.01 | 0.00 | 77 | 1024.2 |
| 20260502205526 | 41 | 129 | 0.0 | 2.0 | 0.00 | 0.01 | 0.01 | 76 | 1024.3 |
| 20260502204521 | 42 | 132 | 1.0 | 3.0 | 0.00 | 0.01 | 0.01 | 75 | 1024.3 |
| 20260502203537 | 42 | 123 | 1.0 | 2.0 | 0.00 | 0.01 | 0.01 | 75 | 1024.2 |
| 20260502202533 | 43 | 104 | 2.0 | 2.0 | 0.00 | 0.01 | 0.01 | 73 | 1024.2 |
| 20260502201530 | 43 | 95 | 0.0 | 1.0 | 0.00 | 0.01 | 0.01 | 72 | 1024.1 |
| 20260502200546 | 44 | 120 | 0.0 | 2.0 | 0.00 | 0.01 | 0.01 | 70 | 1024.2 |
| 20260502195523 | 45 | 134 | 0.0 | 2.0 | 0.00 | 0.01 | 0.01 | 69 | 1024.1 |
| 20260502194518 | 45 | 91 | 0.0 | 1.0 | 0.00 | 0.01 | 0.01 | 65 | 1024.1 |
| 20260502192531 | 47 | 139 | 1.0 | 2.0 | 0.00 | 0.01 | 0.01 | 60 | 1024.1 |
| 20260502191527 | 48 | 127 | 1.0 | 2.0 | 0.00 | 0.01 | 0.01 | 59 | 1024.2 |
| 20260502190523 | 49 | 155 | 1.0 | 3.0 | 0.00 | 0.01 | 0.01 | 55 | 1024.2 |
| 20260502185518 | 49 | 168 | 4.0 | 5.0 | 0.00 | 0.01 | 0.01 | 56 | 1024.2 |
| 20260502184535 | 49 | 168 | 3.0 | 6.0 | 0.00 | 0.01 | 0.01 | 56 | 1024.1 |
| 20260502183531 | 50 | 163 | 3.0 | 5.0 | 0.00 | 0.01 | 0.01 | 55 | 1024.0 |